Regional Weather Roundup
Issued by NWS Lake Charles, LA

Current Version | Previous Version | Text Only | Print | Product List | Glossary On
Versions: 1 2 3 4 5 6 7 8 9 10 11 12 13 14 15 16 17 18 19 20 21 22 23 24 25 26 27 28 29 30 31 32 33 34 35 36 37 38 39 40 41 42 43 44 45 46 47 48 49 50
000
ASUS44 KLCH 171810
RWRLCH
REGIONAL WEATHER ROUNDUP
NATIONAL WEATHER SERVICE LAKE CHARLES LA
1200 PM CST SUN DEC 17 2017

Note: "fair" indicates few or no clouds below 12,000 feet with no
significant weather and/or obstructions to visibility.


ACROSS SOUTHEAST TEXAS

CITY           SKY/WX    TMP DP  RH WIND       PRES   REMARKS
BEAUMONT       CLOUDY    61  55  81 CALM      30.09F HAZE
BEAUMONT CITY  CLOUDY    58  53  83 CALM      30.10F
ORANGE         CLOUDY    58  58  99 CALM      30.11F
JASPER         CLOUDY    52  52 100 CALM      30.11F
$$

ACROSS CENTRAL LOUISIANA

CITY           SKY/WX    TMP DP  RH WIND       PRES   REMARKS
LEESVILLE      CLOUDY    57  54  88 CALM      30.08F
FULLERTON        N/A     55  54  96 CALM      30.06F
ALEXANDRIA INT CLOUDY    52  51  97 NW5       30.09F FOG
ESLER FIELD    CLOUDY    54  52  93 SW3       30.10
DERIDDER       MOCLDY    57  56  95 W3        30.11F
OAKDALE        CLOUDY    58  55  89 CALM      30.09F
OPELOUSAS      CLOUDY    61  60  97 CALM      30.09F
$$

ACROSS SOUTHWEST AND SOUTH CENTRAL LOUISIANA

CITY           SKY/WX    TMP DP  RH WIND       PRES   REMARKS
SULPHUR        CLEAR     65  59  81 NW3       30.10F
LAKE CHARLES   PTSUNNY   66  60  81 VRB3      30.08F
CHENNAULT INT  SUNNY     68  63  83 CALM      30.10S
CAMERON PHI    NOT AVBL
DEQUINCY       CLOUDY    56  54  92 CALM      30.09F
JENNINGS       CLOUDY    60  58  94 CALM      30.10F
LAFAYETTE      CLOUDY    64  64 100 CALM      30.09F
NEW IBERIA     LGT RAIN  65  63  93 S8        30.10F
ABBEVILLE      CLOUDY    64  64 100 S6        30.09F
PATTERSON      LGT RAIN  67  66  97 E3        30.10F
SALT POINT       N/A     64  64 100 SE3       30.09F
$$

SELECTED SITES ACROSS THE REGION

CITY           SKY/WX    TMP DP  RH WIND       PRES   REMARKS
HOUSTON BUSH   CLOUDY    54  52  93 CALM      30.10F FOG
HOUSTON HOBBY  CLOUDY    60  55  83 E3        30.09F HAZE
GALVESTON      CLOUDY    59  55  87 VRB3      30.11F
COLLEGE STAT   CLOUDY    47  47 100 W6        30.10F FOG
CONROE         CLOUDY    52  52 100 CALM      30.10F
HUNTSVILLE     CLOUDY    49  49 100 CALM      30.10S FOG
LUFKIN         CLOUDY    50  49  96 CALM      30.09F FOG
SHREVEPORT     CLOUDY    48  48 100 E3        30.09F FOG
MONROE         CLOUDY   N/A N/A N/A W3        30.12F
NATCHEZ MS     CLOUDY    61  56  83 SE5       30.10F
BATON ROUGE    CLOUDY    65  63  93 SE7       30.09F FOG
N.O. INTL ARPT LGT RAIN  68  68 100 CALM      30.11F FOG
SLIDELL        LGT RAIN  67  66  97 CALM      30.10F FOG
$$

MARINE REPORTS

STATION/POSITION TIME  SKY/WX   TEMP    WIND        PRES    VSBY
                                AIR SEA DIR/SP/G
                 (UTC)          (F)     (DEG/KT/KT) (MB)    (MI)
BUOY 30 S HIGH I 1650            57 61  360/  4/  6 1019.8
WVE H/P(F/S)=  3/ 7

SEA RIM ST PARK  1800            61     160/  5/  5 1019.1F
PORT ARTHUR      1748            57 57  120/  6/  7 1019.2F
SABINE PASS N    1748            60 61  360/  3/  4 1020.5F
TEXAS POINT      NOT AVBL
CALCASIEU PASS   1748            60 57  180/  3/  5 1017.9F
LK CHARLES BEACH 1748            60 58              1018.5F
MARSH ISLAND     1700            63                   N/A
FRESH WATER LOCK 1742                   150/  5/  8 1019.1F
AMERADA PASS     1748            65 55  100/  3/  4 1019.4F
$$



USA.gov is the U.S. government's official web portal to all federal, state and local government web resources and services.